Погода в Емнице

Чехия     49°01′07″N   15°34′15″E
темп.,
°C
ветер,
м/с
пор.,
м/с
влажн.,
%
обл.,
%
осадки,
мм/ч
давл.,
гПа
погр.,
м
19 апреля, пн
пн1923:00+3ссз1190100 0.0 102010
02:00+4ссз1287100 0.1 101939
05:00+4сз1191100 0.6 101925
08:00+4ссз1494100 1.3 1019627
11:00+5с2589100 0.4 1019653
14:00+8ссз3570100 0.7 10171152
17:00+7ссв5784100 0.6 1017716
20:00+5с3693100 0.7 1017413
20 апреля, вт
вт2023:00+5ссз2694100 0.0 1017318
02:00+5сз2595100 0.4 1016234
05:00+5сз2496100 0.6 1016205
08:00+5ссз2594100 1.4 1017257
11:00+9всв236794 0.3 10161075
14:00+10ссз226379 1.4 10151015
17:00+11ссз236159 1.5 10141090
20:00+8ссз127459 2.1 101514
21 апреля, ср
ср2123:00+4з228532 0.0 101614
02:00+4зсз11885 0.0 101610
05:00+3зсз229210 0.0 101617
08:00+7з2485100 0.0 1016181
11:00+10з457435 0.2 1016464
14:00+13з455669 1.6 10141752
17:00+12сз566599 2.8 10131093
20:00+8сз22826 3.9 101513
22 апреля, чт
чт2223:00+6ссз22845 0.1 101618
02:00+4зсз227996 0.1 101711
05:00+3сз22875 0.0 101715
08:00+6сз2486100 0.0 1018275
11:00+8зсз3575100 0.1 10171046
14:00+5ссз4793100 0.2 1018456
17:00+8сз5960100 0.5 10171389
20:00+4ссз476283 0.5 1019167
23 апреля, пт
пт2323:00+1зсз358298 0.0 102285
02:000зсз39884 0.0 1023196
05:00−1зсз49925 0.0 1024199
08:00+2зсз58735 0.0 1025510
11:00+7зсз675135 0.0 10241610
14:00+9зсз57425 0.0 10241798
17:00+9сз56445 0.0 10231705
20:00+4ссз33650 0.0 102430